Regional Weather Roundup
Issued by NWS Sioux Falls, SD

Home | Current Version | Previous Version | Text Only | Print | Product List | Glossary Off
Versions: 1 2 3 4 5 6 7 8 9 10 11 12 13 14 15 16 17 18 19 20 21 22 23 24 25 26 27 28 29 30 31 32 33 34 35 36 37 38 39 40 41 42 43 44 45 46 47 48 49 50

391
ASUS43 KFSD 080710
RWRFSD

WEATHER ROUNDUP FOR SE SOUTH DAKOTA/SW MINNESOTA/NW IOWA
NATIONAL WEATHER SERVICE SIOUX FALLS SD
100 AM CST MON FEB 08 2016

NOTE: "FAIR" INDICATES FEW OR NO CLOUDS BELOW 12,000 FEET WITH NO
SIGNIFICANT WEATHER AND OR OBSTRUCTIONS TO VISIBILITY.


SDZ038>040-050-052>070-080800-
SOUTHEAST SOUTH DAKOTA

CITY           SKY/WX    TMP DP  RH WIND       PRES   REMARKS
BROOKINGS      FLURRIES  19  14  81 N33G41    29.93F WCI  -1
CHAMBERLAIN    CLOUDY    32  19  60 NW25G33   30.12R WCI  18
HURON          CLOUDY    28  20  71 N23G35    30.05S WCI  14
MADISON        FLURRIES  21  21 100 N30G40    29.97S WCI   3
MITCHELL       PTCLDY    28  20  71 NW24G33   30.06S WCI  14
SIOUX FALLS    CLOUDY    23  16  74 NW25G32   29.97S WCI   7
WINNER         FAIR      30  17  58 NW18      30.16S WCI  18
YANKTON        PTCLDY   N/A N/A N/A NW31G44   30.02R
$$

MNZ071-072-080-081-089-090-097-098-080800-
SOUTHWEST MINNESOTA

CITY           SKY/WX    TMP DP  RH WIND       PRES   REMARKS
FAIRMONT       CLOUDY   N/A N/A N/A NW31G38   29.81F
JACKSON        CLOUDY    18  12  79 NW38G45   29.85S WCI  -4
LUVERNE          N/A     21  18  86 N22G29    29.95S WCI   5
MARSHALL       LGT SNOW  17  12  80 N31G43    29.92R WCI  -3
MONTEVIDEO     LGT SNOW  14  12  92 N38G48    29.94F WCI  -9
PIPESTONE      CLOUDY    19  10  68 N22G33    29.92S WCI   3
REDWOOD FALLS  LGT SNOW  15   7  70 NW25G45   29.89R WCI  -4
TRACY          LGT SNOW  18  13  82 N26G36    29.91S WCI  -1
WINDOM         SNOW      16  12  86 NW36G47   29.85F VSB 1/2 WCI  -6
WORTHINGTON    CLOUDY   N/A N/A N/A NW31      29.90R
$$

IAZ001>003-012>014-020>022-031-032-NEZ013-014-SDZ071-080800-
NORTHWEST IOWA

CITY           SKY/WX    TMP DP  RH WIND       PRES   REMARKS
CHEROKEE       LGT SNOW  22  19  89 NW22G33   29.94R WCI   6
DENISON        LGT SNOW  25  21  86 NW24G32   29.91F WCI   9
ESTHERVILLE    FOG       16  14  92 NW25G36   29.86S VSB 1/2 WCI  -3
LE MARS        CLOUDY    25  21  86 N23G29    29.98S WCI  10
ORANGE CITY      N/A    N/A N/A N/A N18       29.94S
SHELDON        SNOW      19  18  93 N25G33    29.92R VSB 1/4 WCI   2
SIOUX CITY     CLOUDY    29  21  72 N23G36    29.97S WCI  15
SPENCER        LGT SNOW  19  13  77 NW29G38   29.90S WCI   0
STORM LAKE     LGT SNOW  19  19 100 NW29G36   29.90S VSB 1   WCI   1
$$

ABBREVIATIONS USED IN REMARKS
   TC - TEMPERATURE IN CELSIUS
  WCI - WIND CHILL INDEX
   HX - HEAT INDEX
  VSB - VISIBILITY





USA.gov is the U.S. government's official web portal to all federal, state and local government web resources and services.